Time,TemperatureF,DewpointF,PressureIn,WindDirection,WindDirectionDegrees,WindSpeedMPH,WindSpeedGustMPH,Humidity,HourlyPrecipIn,Conditions,Clouds,dailyrainin,SoftwareType,DateUTC
2013-01-04 00:04:00,20.9,10.0,30.01,WSW,254,5.0,-999.0,64,-99.99,,,0.00,weatherlink.com 1.10,2013-01-04 05:04:00,
2013-01-04 00:19:00,21.1,11.0,30.00,West,261,6.0,-999.0,65,-99.99,,,0.00,weatherlink.com 1.10,2013-01-04 05:19:00,
2013-01-04 00:49:00,22.0,12.0,29.99,West,269,6.0,-999.0,66,-99.99,,,0.00,weatherlink.com 1.10,2013-01-04 05:49:00,
2013-01-04 01:04:00,22.4,13.0,29.98,West,260,3.0,-999.0,66,-99.99,,,0.00,weatherlink.com 1.10,2013-01-04 06:04:00,
2013-01-04 01:19:00,22.6,13.0,29.99,West,259,3.0,-999.0,67,-99.99,,,0.00,weatherlink.com 1.10,2013-01-04 06:19:00,
2013-01-04 01:34:00,22.7,13.0,29.99,West,261,5.0,-999.0,67,-99.99,,,0.00,weatherlink.com 1.10,2013-01-04 06:34:00,
2013-01-04 01:49:00,22.7,13.0,29.98,West,260,8.0,-999.0,67,-99.99,,,0.00,weatherlink.com 1.10,2013-01-04 06:49:00,
2013-01-04 02:05:00,22.5,13.0,29.99,West,263,5.0,-999.0,68,-99.99,,,0.00,weatherlink.com 1.10,2013-01-04 07:05:00,
2013-01-04 02:20:00,22.5,13.0,29.99,WNW,283,6.0,-999.0,68,-99.99,,,0.00,weatherlink.com 1.10,2013-01-04 07:20:00,
2013-01-04 02:35:00,22.3,14.0,29.98,West,277,8.0,-999.0,69,-99.99,,,0.00,weatherlink.com 1.10,2013-01-04 07:35:00,
2013-01-04 02:50:00,22.6,14.0,29.98,West,274,6.0,-999.0,69,-99.99,,,0.00,weatherlink.com 1.10,2013-01-04 07:50:00,
2013-01-04 03:05:00,22.6,14.0,29.98,West,259,6.0,-999.0,70,-99.99,,,0.00,weatherlink.com 1.10,2013-01-04 08:05:00,
2013-01-04 03:20:00,22.5,14.0,29.98,West,269,6.0,-999.0,70,-99.99,,,0.00,weatherlink.com 1.10,2013-01-04 08:20:00,
2013-01-04 03:35:00,22.5,14.0,29.97,WNW,288,5.0,-999.0,71,-99.99,,,0.00,weatherlink.com 1.10,2013-01-04 08:35:00,
2013-01-04 03:50:00,22.7,15.0,29.97,West,269,2.0,-999.0,71,-99.99,,,0.00,weatherlink.com 1.10,2013-01-04 08:50:00,
2013-01-04 04:05:00,22.9,15.0,29.96,WNW,282,9.0,-999.0,71,-99.99,,,0.00,weatherlink.com 1.10,2013-01-04 09:05:00,
2013-01-04 04:20:00,23.1,15.0,29.96,WNW,298,10.0,-999.0,72,-99.99,,,0.00,weatherlink.com 1.10,2013-01-04 09:20:00,
2013-01-04 04:35:00,23.7,16.0,29.96,West,274,7.0,-999.0,72,-99.99,,,0.00,weatherlink.com 1.10,2013-01-04 09:35:00,
2013-01-04 04:50:00,23.9,16.0,29.95,NW,313,11.0,-999.0,72,-99.99,,,0.00,weatherlink.com 1.10,2013-01-04 09:50:00,
2013-01-04 05:06:00,23.8,16.0,29.96,West,264,9.0,-999.0,73,-99.99,,,0.00,weatherlink.com 1.10,2013-01-04 10:06:00,
2013-01-04 05:21:00,24.2,17.0,29.96,West,279,4.0,-999.0,74,-99.99,,,0.00,weatherlink.com 1.10,2013-01-04 10:21:00,
2013-01-04 05:36:00,24.4,17.0,29.97,WNW,301,8.0,-999.0,74,-99.99,,,0.00,weatherlink.com 1.10,2013-01-04 10:36:00,
2013-01-04 05:51:00,24.8,18.0,29.96,SW,234,3.0,-999.0,74,-99.99,,,0.00,weatherlink.com 1.10,2013-01-04 10:51:00,
2013-01-04 06:06:00,25.4,19.0,29.96,WSW,241,5.0,-999.0,75,-99.99,,,0.00,weatherlink.com 1.10,2013-01-04 11:06:00,
2013-01-04 06:21:00,25.7,18.0,29.97,West,271,4.0,-999.0,74,-99.99,,,0.00,weatherlink.com 1.10,2013-01-04 11:21:00,
2013-01-04 06:36:00,25.6,19.0,29.97,WNW,292,4.0,-999.0,75,-99.99,,,0.00,weatherlink.com 1.10,2013-01-04 11:36:00,
2013-01-04 06:51:00,25.6,19.0,29.97,WNW,284,10.0,-999.0,75,-99.99,,,0.00,weatherlink.com 1.10,2013-01-04 11:51:00,
2013-01-04 07:06:00,25.7,19.0,29.97,WNW,291,8.0,-999.0,76,-99.99,,,0.00,weatherlink.com 1.10,2013-01-04 12:06:00,
2013-01-04 07:21:00,26.3,19.0,29.98,WNW,295,11.0,-999.0,75,-99.99,,,0.00,weatherlink.com 1.10,2013-01-04 12:21:00,
2013-01-04 07:37:00,27.1,20.0,29.97,West,272,6.0,-999.0,74,-99.99,,,0.00,weatherlink.com 1.10,2013-01-04 12:37:00,
2013-01-04 07:52:00,27.4,20.0,29.98,WNW,284,12.0,-999.0,74,-99.99,,,0.00,weatherlink.com 1.10,2013-01-04 12:52:00,
2013-01-04 08:07:00,27.6,20.0,29.98,WNW,286,4.0,-999.0,74,-99.99,,,0.00,weatherlink.com 1.10,2013-01-04 13:07:00,
2013-01-04 08:22:00,27.9,21.0,29.98,NW,306,10.0,-999.0,74,-99.99,,,0.00,weatherlink.com 1.10,2013-01-04 13:22:00,
2013-01-04 08:37:00,28.6,21.0,29.98,NW,309,3.0,-999.0,73,-99.99,,,0.00,weatherlink.com 1.10,2013-01-04 13:37:00,
2013-01-04 08:52:00,29.3,21.0,29.98,WSW,243,3.0,-999.0,72,-99.99,,,0.00,weatherlink.com 1.10,2013-01-04 13:52:00,
2013-01-04 09:07:00,29.9,22.0,29.97,SW,229,5.0,-999.0,72,-99.99,,,0.00,weatherlink.com 1.10,2013-01-04 14:07:00,
2013-01-04 09:22:00,30.5,22.0,29.97,NW,306,6.0,-999.0,71,-99.99,,,0.00,weatherlink.com 1.10,2013-01-04 14:22:00,
2013-01-04 09:37:00,31.1,22.0,29.97,West,281,2.0,-999.0,70,-99.99,,,0.00,weatherlink.com 1.10,2013-01-04 14:37:00,
2013-01-04 09:52:00,32.2,23.0,29.96,SW,226,8.0,-999.0,68,-99.99,,,0.00,weatherlink.com 1.10,2013-01-04 14:52:00,
2013-01-04 10:08:00,33.1,23.0,29.96,WNW,283,5.0,-999.0,66,-99.99,,,0.00,weatherlink.com 1.10,2013-01-04 15:08:00,
2013-01-04 10:23:00,33.9,23.0,29.95,WSW,257,4.0,-999.0,64,-99.99,,,0.00,weatherlink.com 1.10,2013-01-04 15:23:00,
2013-01-04 10:38:00,34.5,23.0,29.95,WNW,286,6.0,-999.0,62,-99.99,,,0.00,weatherlink.com 1.10,2013-01-04 15:38:00,
2013-01-04 10:53:00,34.9,22.0,29.94,WNW,282,12.0,-999.0,60,-99.99,,,0.00,weatherlink.com 1.10,2013-01-04 15:53:00,
2013-01-04 11:08:00,35.4,22.0,29.93,SSW,211,7.0,-999.0,59,-99.99,,,0.00,weatherlink.com 1.10,2013-01-04 16:08:00,
2013-01-04 11:23:00,35.0,22.0,29.92,West,274,9.0,-999.0,59,-99.99,,,0.00,weatherlink.com 1.10,2013-01-04 16:23:00,
2013-01-04 11:38:00,35.7,22.0,29.90,WSW,246,20.0,-999.0,58,-99.99,,,0.00,weatherlink.com 1.10,2013-01-04 16:38:00,
2013-01-04 11:53:00,35.9,21.0,29.89,WNW,284,21.0,-999.0,56,-99.99,,,0.00,weatherlink.com 1.10,2013-01-04 16:53:00,
2013-01-04 12:09:00,35.9,21.0,29.88,NNW,331,4.0,-999.0,56,-99.99,,,0.00,weatherlink.com 1.10,2013-01-04 17:09:00,
2013-01-04 12:24:00,36.0,22.0,29.87,WNW,301,8.0,-999.0,56,-99.99,,,0.00,weatherlink.com 1.10,2013-01-04 17:24:00,
2013-01-04 12:39:00,36.9,22.0,29.86,West,276,10.0,-999.0,56,-99.99,,,0.00,weatherlink.com 1.10,2013-01-04 17:39:00,
2013-01-04 12:54:00,37.6,22.0,29.84,WNW,298,9.0,-999.0,54,-99.99,,,0.00,weatherlink.com 1.10,2013-01-04 17:54:00,
2013-01-04 13:09:00,37.0,22.0,29.84,West,263,17.0,-999.0,54,-99.99,,,0.00,weatherlink.com 1.10,2013-01-04 18:09:00,
2013-01-04 13:24:00,36.9,22.0,29.83,West,269,14.0,-999.0,56,-99.99,,,0.00,weatherlink.com 1.10,2013-01-04 18:24:00,
2013-01-04 13:39:00,37.2,23.0,29.83,WNW,297,4.0,-999.0,56,-99.99,,,0.00,weatherlink.com 1.10,2013-01-04 18:39:00,
2013-01-04 13:54:00,37.5,23.0,29.83,WSW,245,9.0,-999.0,55,-99.99,,,0.00,weatherlink.com 1.10,2013-01-04 18:54:00,
2013-01-04 14:09:00,37.6,23.0,29.83,WNW,297,14.0,-999.0,55,-99.99,,,0.00,weatherlink.com 1.10,2013-01-04 19:09:00,
2013-01-04 14:24:00,37.6,23.0,29.82,WNW,296,5.0,-999.0,55,-99.99,,,0.00,weatherlink.com 1.10,2013-01-04 19:24:00,
2013-01-04 14:39:00,37.5,23.0,29.83,WSW,254,2.0,-999.0,56,-99.99,,,0.00,weatherlink.com 1.10,2013-01-04 19:39:00,
2013-01-04 14:55:00,37.4,23.0,29.83,WSW,254,15.0,-999.0,57,-99.99,,,0.00,weatherlink.com 1.10,2013-01-04 19:55:00,
2013-01-04 15:10:00,37.3,23.0,29.84,SW,225,10.0,-999.0,57,-99.99,,,0.00,weatherlink.com 1.10,2013-01-04 20:10:00,
2013-01-04 15:25:00,37.2,23.0,29.84,WNW,291,1.0,-999.0,58,-99.99,,,0.00,weatherlink.com 1.10,2013-01-04 20:25:00,
2013-01-04 15:40:00,37.2,23.0,29.84,NW,306,4.0,-999.0,58,-99.99,,,0.00,weatherlink.com 1.10,2013-01-04 20:40:00,
2013-01-04 15:55:00,37.1,24.0,29.84,SW,217,4.0,-999.0,59,-99.99,,,0.00,weatherlink.com 1.10,2013-01-04 20:55:00,
2013-01-04 16:10:00,36.9,24.0,29.84,WNW,286,9.0,-999.0,60,-99.99,,,0.00,weatherlink.com 1.10,2013-01-04 21:10:00,
2013-01-04 16:25:00,36.6,24.0,29.84,SW,236,4.0,-999.0,61,-99.99,,,0.00,weatherlink.com 1.10,2013-01-04 21:25:00,
2013-01-04 16:40:00,36.4,24.0,29.84,WSW,257,6.0,-999.0,62,-99.99,,,0.00,weatherlink.com 1.10,2013-01-04 21:40:00,
2013-01-04 16:55:00,36.1,24.0,29.84,SW,229,3.0,-999.0,63,-99.99,,,0.00,weatherlink.com 1.10,2013-01-04 21:55:00,
2013-01-04 17:11:00,35.9,24.0,29.84,WSW,245,3.0,-999.0,63,-99.99,,,0.00,weatherlink.com 1.10,2013-01-04 22:11:00,
2013-01-04 17:26:00,35.9,24.0,29.84,West,271,9.0,-999.0,63,-99.99,,,0.00,weatherlink.com 1.10,2013-01-04 22:26:00,
2013-01-04 17:41:00,35.8,24.0,29.85,WSW,246,6.0,-999.0,63,-99.99,,,0.00,weatherlink.com 1.10,2013-01-04 22:41:00,
2013-01-04 17:56:00,35.7,24.0,29.85,West,259,6.0,-999.0,63,-99.99,,,0.00,weatherlink.com 1.10,2013-01-04 22:56:00,
2013-01-04 18:11:00,35.6,24.0,29.85,WSW,249,6.0,-999.0,63,-99.99,,,0.00,weatherlink.com 1.10,2013-01-04 23:11:00,
2013-01-04 18:26:00,35.5,24.0,29.85,WSW,240,4.0,-999.0,64,-99.99,,,0.00,weatherlink.com 1.10,2013-01-04 23:26:00,
2013-01-04 18:41:00,35.3,24.0,29.85,WSW,243,4.0,-999.0,64,-99.99,,,0.00,weatherlink.com 1.10,2013-01-04 23:41:00,
2013-01-04 18:56:00,35.2,24.0,29.85,West,259,8.0,-999.0,64,-99.99,,,0.00,weatherlink.com 1.10,2013-01-04 23:56:00,
2013-01-04 19:11:00,35.0,24.0,29.86,WSW,258,4.0,-999.0,64,-99.99,,,0.00,weatherlink.com 1.10,2013-01-05 00:11:00,
2013-01-04 19:26:00,34.7,24.0,29.86,WSW,246,6.0,-999.0,65,-99.99,,,0.00,weatherlink.com 1.10,2013-01-05 00:26:00,
2013-01-04 19:41:00,34.7,24.0,29.86,WSW,240,3.0,-999.0,65,-99.99,,,0.00,weatherlink.com 1.10,2013-01-05 00:41:00,
2013-01-04 19:56:00,34.5,24.0,29.86,WSW,257,7.0,-999.0,66,-99.99,,,0.00,weatherlink.com 1.10,2013-01-05 00:56:00,
2013-01-04 20:27:00,34.2,24.0,29.86,SW,214,7.0,-999.0,66,-99.99,,,0.00,weatherlink.com 1.10,2013-01-05 01:27:00,
2013-01-04 20:42:00,34.0,24.0,29.86,SW,216,7.0,-999.0,67,-99.99,,,0.00,weatherlink.com 1.10,2013-01-05 01:42:00,
2013-01-04 20:57:00,33.7,24.0,29.86,WNW,300,6.0,-999.0,67,-99.99,,,0.00,weatherlink.com 1.10,2013-01-05 01:57:00,
2013-01-04 21:12:00,33.7,24.0,29.86,WSW,248,5.0,-999.0,67,-99.99,,,0.00,weatherlink.com 1.10,2013-01-05 02:12:00,
2013-01-04 21:27:00,34.0,24.0,29.87,WSW,243,4.0,-999.0,67,-99.99,,,0.00,weatherlink.com 1.10,2013-01-05 02:27:00,
2013-01-04 21:42:00,34.0,24.0,29.87,SW,225,5.0,-999.0,67,-99.99,,,0.00,weatherlink.com 1.10,2013-01-05 02:42:00,
2013-01-04 21:57:00,34.1,23.0,29.87,SW,232,2.0,-999.0,65,-99.99,,,0.00,weatherlink.com 1.10,2013-01-05 02:57:00,
2013-01-04 22:12:00,34.1,23.0,29.87,SW,232,6.0,-999.0,65,-99.99,,,0.00,weatherlink.com 1.10,2013-01-05 03:12:00,
2013-01-04 22:27:00,33.9,24.0,29.87,West,267,5.0,-999.0,66,-99.99,,,0.00,weatherlink.com 1.10,2013-01-05 03:27:00,
2013-01-04 22:42:00,33.7,23.0,29.87,WSW,243,6.0,-999.0,66,-99.99,,,0.00,weatherlink.com 1.10,2013-01-05 03:42:00,
2013-01-04 22:57:00,33.6,23.0,29.87,West,272,9.0,-999.0,66,-99.99,,,0.00,weatherlink.com 1.10,2013-01-05 03:57:00,
2013-01-04 23:12:00,33.4,23.0,29.86,SW,225,2.0,-999.0,66,-99.99,,,0.00,weatherlink.com 1.10,2013-01-05 04:12:00,
2013-01-04 23:28:00,33.3,23.0,29.86,WSW,247,2.0,-999.0,66,-99.99,,,0.00,weatherlink.com 1.10,2013-01-05 04:28:00,
2013-01-04 23:43:00,33.0,23.0,29.86,WSW,246,5.0,-999.0,66,-99.99,,,0.00,weatherlink.com 1.10,2013-01-05 04:43:00,
2013-01-04 23:58:00,32.8,23.0,29.86,WSW,240,2.0,-999.0,66,-99.99,,,0.00,weatherlink.com 1.10,2013-01-05 04:58:00,